Terminal Aerodrome Forecast
Issued by NWS

Home | Current Version | Previous Version | Text Only | Print | Product List | Glossary On
Versions: 1 2 3 4 5 6 7 8 9 10 11 12 13 14 15 16 17 18 19 20 21 22 23 24 25 26 27 28 29 30 31 32 33 34 35 36 37 38 39
000
FTUS43 KDMX 280520
TAFMCW
TAF
KMCW 280520Z 2806/2906 15012KT P6SM SCT035
     FM281200 16011G15KT 5SM BR VCTS SCT015 BKN090CB
     FM281600 17016G22KT P6SM VCSH SCT035 BKN050
     FM282200 21011G18KT 6SM -TSRA BKN035CB
     FM290300 30010KT P6SM BKN040=

USA.gov is the U.S. government's official web portal to all federal, state and local government web resources and services.